Wind_Speed
87 88 90 94 94 97 99 100 102 103 107 113 117 122 121 121 115 115 114 112 107 102 99 95 90 86 82 78 76 75 73 72 71 70 71 73 78 83
87 89 92 96 99 102 103 105 109 112 111 118 122 122 124 124 121 118 112 108 104 101 93 90 84 81 76 72 70 68 67 67 67 66 66 68 71 77
94 95 98 102 104 106 107 110 115 118 119 120 124 124 122 124 120 118 113 108 102 95 88 85 80 75 69 66 63 61 62 62 63 63 63 64 66 71
96 99 102 104 105 108 113 117 119 121 127 125 121 124 124 122 119 113 109 105 97 90 83 78 74 69 63 60 56 56 56 57 60 59 61 61 62 65
100 103 105 107 110 114 118 119 122 127 129 127 124 123 121 123 118 110 103 98 93 85 78 73 69 66 61 58 55 53 52 55 56 56 57 59 59 62
102 105 108 112 115 119 120 123 129 128 126 127 124 123 123 120 114 107 100 93 85 80 73 70 66 64 59 56 53 50 49 53 54 54 53 55 58 60
105 109 112 114 117 119 124 129 130 128 128 128 128 124 123 116 110 103 94 86 81 73 69 66 62 62 57 54 52 49 46 50 51 53 52 54 55 59
109 113 114 117 120 124 125 123 123 125 127 130 127 128 120 114 105 97 88 81 75 70 64 63 58 58 54 52 52 49 46 45 49 49 51 53 55 57
113 114 117 122 126 125 123 122 120 122 124 125 126 122 116 110 100 91 84 77 71 67 62 62 57 55 51 50 51 49 45 44 46 48 48 50 52 55
114 119 121 118 119 122 119 121 124 128 127 122 119 116 111 103 93 86 80 74 69 63 58 58 53 51 48 46 49 48 43 42 44 45 46 47 49 52
115 112 114 116 117 118 121 124 124 128 127 118 116 111 104 95 87 81 74 70 64 60 55 54 49 47 46 43 45 46 40 40 42 43 44 45 46 49
109 111 111 112 115 120 122 125 125 125 119 115 110 104 97 88 81 77 70 65 59 58 52 51 45 44 44 41 42 44 38 38 39 39 41 43 44 47
106 107 111 114 117 120 124 126 122 115 114 110 104 96 87 82 77 73 66 58 56 54 50 48 43 40 41 41 38 43 37 35 36 37 39 41 42 45
107 111 114 118 121 123 122 118 113 111 107 102 96 89 82 76 71 66 63 59 53 51 47 45 41 38 37 39 37 39 40 34 35 34 36 37 39 41
112 115 118 120 120 116 112 111 106 102 99 93 88 83 77 72 66 61 59 54 52 48 46 41 38 36 35 37 34 36 37 35 33 32 34 35 35 38
116 119 118 115 111 108 105 101 100 96 91 87 83 77 72 67 62 57 55 51 49 45 43 39 35 33 33 35 32 31 35 33 33 31 31 34 34 37
114 112 109 107 105 103 101 97 91 88 85 82 78 74 67 63 59 55 52 49 46 43 40 37 34 32 32 33 32 29 32 31 31 32 30 31 33 33
107 105 103 103 101 99 96 93 89 83 78 77 73 68 63 59 55 52 49 46 43 41 39 36 34 32 31 31 30 28 29 28 28 29 29 28 29 30
104 103 101 100 97 94 91 88 85 80 74 69 68 64 60 55 52 49 47 44 41 39 37 34 33 32 31 29 26 28 28 27 26 26 27 27 27 29
102 100 97 94 92 89 86 83 80 75 69 65 62 60 56 53 49 47 45 42 39 37 35 32 32 31 30 29 25 26 26 25 24 24 25 26 27 28
99 98 94 90 86 84 83 79 75 70 65 62 59 56 52 49 47 45 43 40 38 36 34 31 30 29 29 28 26 26 25 23 22 23 24 25 26 26
95 92 89 86 83 80 78 75 71 67 61 57 55 53 49 46 45 43 41 38 36 34 32 31 29 28 27 27 25 24 23 22 22 22 23 23 24 24
91 87 85 82 79 76 74 70 66 61 56 52 50 48 47 44 42 40 38 36 34 32 30 29 27 27 26 26 25 24 22 22 21 21 22 23 23 23
Wind_Direction
293 298 297 297 299 303 305 305 304 304 305 306 308 308 309 309 309 307 307 306 305 303 302 298 296 293 290 286 282 279 275 272 268 263 257 250 246 242
296 296 299 303 304 305 304 304 305 306 306 307 309 310 310 310 310 309 309 308 308 306 303 299 297 293 290 287 282 278 275 271 267 262 257 251 245 242
301 304 304 304 304 303 304 305 306 306 307 309 310 310 310 309 311 311 311 311 310 305 303 299 296 292 290 286 282 278 272 269 265 260 256 250 245 240
301 301 302 302 302 304 306 306 306 307 308 309 310 310 309 311 311 312 312 311 308 305 302 298 295 292 289 285 281 276 271 267 263 259 255 251 245 239
300 301 302 303 305 306 306 306 306 307 309 310 310 310 312 313 312 313 313 311 307 304 302 299 296 292 289 285 280 274 271 266 263 259 254 250 245 241
301 302 303 305 305 306 306 306 306 308 309 309 310 312 313 312 313 314 314 309 306 304 302 298 295 292 288 284 280 274 269 265 262 259 255 250 244 240
301 303 304 304 304 304 305 306 308 310 310 310 312 314 312 313 314 314 312 307 304 303 300 297 294 290 288 285 281 276 268 265 261 259 254 250 246 240
301 302 303 303 302 302 304 305 307 309 310 310 313 313 312 313 314 313 309 307 304 302 299 295 292 289 288 284 280 276 270 264 263 258 253 248 244 240
301 301 301 301 303 304 305 306 307 308 309 310 312 311 312 313 312 311 309 307 304 302 298 293 291 289 287 283 279 276 272 266 261 258 253 249 243 238
298 299 300 302 303 304 306 307 309 310 310 313 312 312 313 312 312 310 308 306 304 301 298 294 291 289 285 281 278 274 271 267 260 257 254 249 244 237
299 300 301 302 304 306 308 308 310 311 311 311 311 312 312 311 310 309 307 305 304 300 298 294 292 288 284 281 277 275 271 267 260 255 252 249 245 239
300 301 302 304 306 307 307 309 310 310 310 310 311 311 311 310 310 308 307 305 303 300 297 293 291 288 283 280 276 275 272 266 260 256 253 249 244 240
301 302 304 306 306 307 308 309 309 309 308 309 310 310 310 310 310 308 306 305 303 300 297 293 291 285 282 279 276 275 272 265 259 255 253 250 245 240
304 305 306 307 308 307 308 308 308 308 308 308 309 309 310 310 309 307 306 306 303 299 296 293 290 284 280 278 278 273 274 267 260 256 254 249 245 240
305 305 306 307 308 308 308 307 307 307 307 308 308 309 309 309 307 307 305 304 301 299 295 292 289 284 280 277 276 272 271 270 263 258 255 250 243 240
306 307 307 307 307 308 307 307 307 307 307 308 308 308 308 307 306 306 304 303 300 298 294 292 288 283 279 277 274 268 270 269 268 263 255 251 245 241
306 307 307 308 308 308 307 306 307 307 307 308 307 307 307 306 306 305 304 301 299 297 295 291 288 284 279 276 274 269 268 268 266 263 255 250 248 240
308 309 309 309 309 309 308 308 308 308 308 307 307 305 306 305 304 304 302 300 298 296 293 291 287 284 278 275 275 272 270 267 263 259 257 251 245 241
310 310 310 310 309 308 307 307 307 308 308 306 305 305 305 304 302 301 300 298 296 294 292 289 286 283 279 275 273 272 269 267 262 258 253 250 247 243
310 310 310 309 308 307 306 306 306 306 306 305 303 302 303 301 300 299 297 296 294 291 289 286 282 281 279 279 277 273 270 266 259 253 247 246 244 242
311 311 310 309 307 306 306 305 305 305 305 303 302 300 300 299 298 297 295 293 290 288 286 282 279 278 277 278 277 274 271 265 257 250 244 244 243 241
310 309 308 307 307 306 305 305 304 304 303 301 299 298 298 297 296 295 293 291 288 285 284 279 276 275 274 275 275 272 271 265 257 250 245 244 243 239
309 309 307 307 306 305 304 304 303 303 302 299 297 296 296 296 294 292 291 289 286 283 281 276 272 272 270 270 271 269 267 262 257 247 246 245 242 237
Height
10486 10477 10465 10454 10444 10430 10418 10406 10396 10391 10380 10358 10343 10322 10305 10295 10289 10273 10260 10241 10227 10212 10195 10181 10169 10159 10152 10148 10144 10139 10138 10137 10140 10145 10151 10159 10168 10180
10469 10460 10446 10432 10421 10408 10396 10384 10370 10359 10358 10333 10317 10297 10279 10260 10247 10236 10224 10206 10191 10173 10161 10145 10141 10132 10126 10122 10117 10114 10113 10113 10115 10119 10124 10132 10141 10150
10444 10433 10423 10411 10399 10386 10374 10361 10347 10330 10323 10318 10290 10272 10258 10235 10222 10204 10186 10172 10159 10144 10137 10123 10113 10107 10103 10098 10094 10093 10090 10090 10091 10095 10099 10106 10115 10124
10426 10414 10402 10391 10379 10364 10349 10336 10321 10305 10289 10281 10272 10248 10228 10209 10192 10178 10164 10146 10130 10117 10108 10098 10089 10083 10081 10077 10075 10071 10069 10068 10068 10073 10077 10084 10091 10100
10405 10392 10380 10367 10353 10338 10325 10310 10294 10281 10262 10244 10236 10219 10202 10179 10160 10146 10135 10120 10104 10092 10084 10074 10067 10061 10059 10056 10053 10052 10051 10049 10049 10054 10058 10063 10071 10078
10384 10370 10357 10343 10328 10312 10298 10282 10268 10254 10238 10219 10205 10189 10169 10152 10134 10120 10108 10093 10082 10070 10063 10052 10045 10039 10038 10035 10033 10033 10032 10030 10031 10034 10039 10043 10050 10057
10361 10348 10336 10323 10308 10292 10274 10258 10238 10222 10206 10187 10172 10160 10141 10126 10110 10097 10084 10072 10059 10052 10043 10033 10028 10019 10017 10014 10012 10013 10014 10013 10013 10016 10020 10024 10030 10037
10341 10328 10313 10299 10285 10272 10261 10245 10228 10205 10186 10162 10150 10128 10113 10097 10085 10073 10060 10049 10039 10028 10025 10012 10010 10002 10000 9996 9992 9993 9995 9996 9995 9998 10001 10005 10011 10018
10319 10305 10290 10273 10257 10241 10228 10215 10203 10186 10169 10151 10132 10107 10090 10074 10063 10049 10035 10026 10017 10009 10004 9993 9991 9985 9984 9979 9975 9975 9977 9979 9979 9980 9984 9988 9993 10000
10296 10281 10266 10251 10232 10217 10205 10189 10170 10148 10125 10117 10102 10083 10067 10052 10041 10029 10016 10006 9997 9990 9985 9975 9974 9970 9966 9964 9959 9958 9961 9962 9963 9965 9967 9970 9976 9983
10272 10256 10241 10228 10211 10193 10175 10158 10146 10124 10102 10091 10072 10058 10047 10033 10020 10009 9998 9988 9979 9972 9967 9959 9958 9953 9950 9949 9944 9942 9946 9948 9948 9950 9952 9956 9961 9966
10249 10234 10219 10204 10189 10170 10151 10132 10117 10098 10080 10062 10051 10039 10022 10012 10001 9988 9979 9970 9963 9953 9951 9944 9942 9938 9934 9934 9931 9928 9933 9934 9934 9936 9939 9942 9946 9950
10224 10211 10195 10180 10164 10147 10127 10107 10090 10074 10057 10040 10027 10014 10005 9992 9979 9967 9959 9956 9946 9938 9934 9928 9928 9924 9920 9919 9919 9914 9918 9920 9921 9923 9924 9927 9931 9937
10197 10182 10168 10152 10136 10120 10101 10083 10067 10050 10034 10020 10005 9993 9982 9973 9963 9953 9943 9935 9930 9924 9919 9915 9913 9911 9908 9905 9905 9903 9902 9906 9908 9910 9912 9915 9918 9922
10170 10155 10139 10124 10108 10092 10075 10057 10043 10027 10012 9999 9986 9973 9964 9954 9945 9937 9928 9923 9915 9910 9905 9903 9900 9898 9896 9893 9894 9892 9890 9892 9895 9898 9899 9901 9906 9909
10143 10127 10109 10095 10079 10065 10051 10035 10020 10005 9990 9978 9966 9956 9946 9937 9929 9921 9914 9908 9902 9897 9892 9890 9888 9886 9884 9882 9883 9882 9879 9881 9881 9884 9887 9889 9892 9896
10119 10102 10086 10069 10052 10034 10018 10006 9996 9983 9969 9957 9947 9936 9929 9920 9912 9906 9900 9895 9889 9885 9880 9878 9876 9875 9873 9871 9871 9872 9870 9871 9871 9872 9874 9877 9880 9884
10089 10075 10058 10040 10024 10009 9994 9979 9966 9960 9952 9938 9928 9919 9913 9905 9898 9892 9886 9881 9877 9873 9869 9867 9864 9864 9863 9861 9860 9860 9860 9861 9861 9862 9863 9866 9869 9872
10058 10044 10029 10013 9999 9984 9971 9958 9948 9937 9929 9922 9911 9902 9895 9890 9884 9878 9874 9869 9865 9861 9858 9856 9854 9852 9851 9851 9851 9850 9851 9851 9852 9853 9854 9856 9859 9862
10030 10016 10004 9990 9975 9961 9949 9938 9928 9918 9911 9904 9896 9887 9881 9874 9870 9866 9861 9857 9853 9850 9848 9846 9844 9842 9841 9840 9841 9841 9842 9842 9843 9845 9846 9848 9850 9853
10002 9987 9975 9963 9951 9939 9928 9917 9909 9901 9894 9886 9878 9871 9866 9861 9856 9852 9848 9845 9842 9840 9838 9837 9835 9833 9832 9832 9832 9833 9833 9834 9835 9836 9838 9840 9842 9845
9976 9963 9949 9937 9927 9917 9907 9898 9889 9883 9877 9869 9862 9856 9851 9847 9842 9839 9836 9834 9831 9829 9828 9827 9826 9825 9824 9824 9824 9825 9825 9826 9827 9828 9830 9832 9835 9838
9952 9939 9926 9915 9905 9895 9886 9878 9870 9863 9858 9852 9846 9841 9837 9834 9830 9827 9824 9822 9820 9819 9818 9817 9817 9816 9816 9816 9816 9817 9818 9818 9819 9822 9823 9825 9828 9831